Time,TemperatureF,DewpointF,PressureIn,WindDirection,WindDirectionDegrees,WindSpeedMPH,WindSpeedGustMPH,Humidity,HourlyPrecipIn,Conditions,Clouds,dailyrainin,SoftwareType,DateUTC
2013-05-22 00:03:00,66.9,56.3,27.91,West,275,0.0,1.6,69,0.00,,,0.00,WSDL version 423,2013-05-22 04:03:00,
2013-05-22 00:08:00,66.9,56.0,27.91,SW,225,0.1,1.6,68,0.00,,,0.00,WSDL version 423,2013-05-22 04:08:00,
2013-05-22 00:13:00,66.7,55.9,27.91,ESE,107,0.4,1.6,68,0.00,,,0.00,WSDL version 423,2013-05-22 04:13:00,
2013-05-22 00:18:00,66.6,56.0,27.91,SE,125,0.0,1.6,69,0.00,,,0.00,WSDL version 423,2013-05-22 04:18:00,
2013-05-22 00:23:00,66.4,56.0,27.91,East,82,0.4,1.6,69,0.00,,,0.00,WSDL version 423,2013-05-22 04:23:00,
2013-05-22 00:28:00,66.3,55.9,27.91,SE,127,0.6,2.2,69,0.00,,,0.00,WSDL version 423,2013-05-22 04:28:00,
2013-05-22 00:33:00,66.2,55.8,27.91,East,90,0.6,2.2,69,0.00,,,0.00,WSDL version 423,2013-05-22 04:33:00,
2013-05-22 00:38:00,66.2,55.8,27.91,North,3,0.4,1.6,69,0.00,,,0.00,WSDL version 423,2013-05-22 04:38:00,
2013-05-22 00:43:00,66.1,56.4,27.91,North,355,0.3,2.5,72,0.00,,,0.00,WSDL version 423,2013-05-22 04:43:00,
2013-05-22 00:48:00,66.1,56.2,27.94,North,352,1.7,4.7,70,0.00,,,0.00,WSDL version 423,2013-05-22 04:48:00,
2013-05-22 00:53:00,66.5,56.4,27.94,WNW,283,0.6,4.7,70,0.00,,,0.00,WSDL version 423,2013-05-22 04:53:00,
2013-05-22 00:58:00,66.7,56.6,27.94,SW,236,1.2,4.9,70,0.00,,,0.00,WSDL version 423,2013-05-22 04:58:00,
2013-05-22 01:03:00,66.6,56.2,27.91,SW,218,2.8,6.0,68,0.00,,,0.00,WSDL version 423,2013-05-22 05:03:00,
2013-05-22 01:08:00,66.5,55.6,27.91,NW,321,1.8,6.0,68,0.00,,,0.00,WSDL version 423,2013-05-22 05:08:00,
2013-05-22 01:13:00,66.2,55.0,27.91,South,178,0.4,3.4,68,0.00,,,0.00,WSDL version 423,2013-05-22 05:13:00,
2013-05-22 01:18:00,65.9,55.0,27.91,ESE,108,1.5,2.9,68,0.00,,,0.00,WSDL version 423,2013-05-22 05:18:00,
2013-05-22 01:23:00,65.4,55.1,27.91,South,174,2.3,3.1,69,0.00,,,0.00,WSDL version 423,2013-05-22 05:23:00,
2013-05-22 01:28:00,64.8,54.9,27.91,ESE,110,1.4,3.1,72,0.00,,,0.00,WSDL version 423,2013-05-22 05:28:00,
2013-05-22 01:33:00,64.2,55.3,27.88,NE,45,1.5,2.7,73,0.00,,,0.00,WSDL version 423,2013-05-22 05:33:00,
2013-05-22 01:38:00,63.8,55.3,27.88,ESE,108,1.6,2.9,75,0.00,,,0.00,WSDL version 423,2013-05-22 05:38:00,
2013-05-22 01:43:00,63.3,55.7,27.88,SE,141,1.0,3.4,77,0.04,,,0.04,WSDL version 423,2013-05-22 05:43:00,
2013-05-22 01:48:00,63.0,55.9,27.88,SE,130,1.1,3.4,78,0.04,,,0.04,WSDL version 423,2013-05-22 05:48:00,
2013-05-22 01:53:00,62.7,56.7,27.88,SSE,155,1.5,2.9,82,0.04,,,0.04,WSDL version 423,2013-05-22 05:53:00,
2013-05-22 01:58:00,62.4,56.9,27.88,NNW,346,0.5,2.9,83,0.04,,,0.04,WSDL version 423,2013-05-22 05:58:00,
2013-05-22 02:03:00,62.2,58.2,27.88,NE,38,1.6,3.4,87,0.04,,,0.04,WSDL version 423,2013-05-22 06:03:00,
2013-05-22 02:08:00,62.1,58.6,27.88,NW,315,1.4,3.4,90,0.04,,,0.04,WSDL version 423,2013-05-22 06:08:00,
2013-05-22 02:13:00,61.9,58.9,27.88,SE,125,0.0,3.4,89,0.04,,,0.04,WSDL version 423,2013-05-22 06:13:00,
2013-05-22 02:18:00,62.1,59.3,27.88,East,79,1.4,2.0,91,0.04,,,0.04,WSDL version 423,2013-05-22 06:18:00,
2013-05-22 02:23:00,62.1,59.4,27.88,East,98,0.0,2.0,91,0.04,,,0.04,WSDL version 423,2013-05-22 06:23:00,
2013-05-22 02:28:00,62.1,59.4,27.88,North,8,1.2,2.7,91,0.04,,,0.04,WSDL version 423,2013-05-22 06:28:00,
2013-05-22 02:33:00,61.9,59.1,27.85,SE,135,1.1,2.7,90,0.04,,,0.04,WSDL version 423,2013-05-22 06:33:00,
2013-05-22 02:38:00,61.9,58.9,27.85,East,93,0.0,2.5,90,0.04,,,0.04,WSDL version 423,2013-05-22 06:38:00,
2013-05-22 02:43:00,61.7,58.4,27.85,North,8,0.0,0.9,89,0.00,,,0.04,WSDL version 423,2013-05-22 06:43:00,
2013-05-22 02:48:00,61.7,58.6,27.85,ESE,113,0.6,2.0,90,0.00,,,0.04,WSDL version 423,2013-05-22 06:48:00,
2013-05-22 02:53:00,61.5,58.4,27.85,NE,37,0.0,2.0,90,0.00,,,0.04,WSDL version 423,2013-05-22 06:53:00,
2013-05-22 02:58:00,61.5,58.5,27.85,ESE,118,0.4,2.5,90,0.00,,,0.04,WSDL version 423,2013-05-22 06:58:00,
2013-05-22 03:03:00,61.3,58.2,27.85,SW,215,0.0,2.5,89,0.00,,,0.04,WSDL version 423,2013-05-22 07:03:00,
2013-05-22 03:08:00,61.3,58.4,27.85,East,90,0.4,2.0,90,0.00,,,0.04,WSDL version 423,2013-05-22 07:08:00,
2013-05-22 03:13:00,61.3,58.4,27.85,SSE,158,0.0,2.0,90,0.00,,,0.04,WSDL version 423,2013-05-22 07:13:00,
2013-05-22 03:18:00,61.2,58.1,27.85,SSE,158,0.0,1.1,90,0.00,,,0.04,WSDL version 423,2013-05-22 07:18:00,
2013-05-22 03:23:00,61.2,58.0,27.85,SSE,150,0.0,0.0,90,0.00,,,0.04,WSDL version 423,2013-05-22 07:23:00,
2013-05-22 03:28:00,61.2,58.2,27.85,SSE,155,0.0,0.0,90,0.00,,,0.04,WSDL version 423,2013-05-22 07:28:00,
2013-05-22 03:33:00,61.1,58.1,27.85,SSE,155,0.0,0.0,90,0.00,,,0.04,WSDL version 423,2013-05-22 07:33:00,
2013-05-22 03:38:00,61.0,58.0,27.85,SSE,158,0.0,0.0,90,0.00,,,0.04,WSDL version 423,2013-05-22 07:38:00,
2013-05-22 03:43:00,61.2,58.2,27.85,SSE,148,0.5,1.6,90,0.00,,,0.04,WSDL version 423,2013-05-22 07:43:00,
2013-05-22 03:48:00,61.3,58.6,27.85,ESE,118,1.5,2.7,92,0.00,,,0.04,WSDL version 423,2013-05-22 07:48:00,
2013-05-22 03:53:00,61.3,58.9,27.85,NNW,338,0.0,2.7,91,0.00,,,0.04,WSDL version 423,2013-05-22 07:53:00,
2013-05-22 03:58:00,61.0,58.4,27.85,East,83,1.1,2.0,91,0.00,,,0.04,WSDL version 423,2013-05-22 07:58:00,
2013-05-22 04:03:00,60.9,58.3,27.85,SSE,158,0.1,2.2,91,0.00,,,0.04,WSDL version 423,2013-05-22 08:03:00,
2013-05-22 04:08:00,60.8,58.2,27.85,East,93,0.0,2.2,92,0.00,,,0.04,WSDL version 423,2013-05-22 08:08:00,
2013-05-22 04:13:00,60.9,58.6,27.85,East,88,0.5,2.2,92,0.00,,,0.04,WSDL version 423,2013-05-22 08:13:00,
2013-05-22 04:18:00,61.0,58.7,27.85,NW,304,0.4,2.2,92,0.00,,,0.04,WSDL version 423,2013-05-22 08:18:00,
2013-05-22 04:23:00,61.0,58.7,27.85,ESE,113,0.5,1.6,92,0.00,,,0.04,WSDL version 423,2013-05-22 08:23:00,
2013-05-22 04:28:00,61.0,58.7,27.85,ENE,64,0.8,2.2,92,0.00,,,0.04,WSDL version 423,2013-05-22 08:28:00,
2013-05-22 04:33:00,60.9,58.6,27.85,SSW,203,0.0,2.2,92,0.00,,,0.04,WSDL version 423,2013-05-22 08:33:00,
2013-05-22 04:38:00,60.8,58.5,27.85,SSE,158,0.0,0.9,92,0.00,,,0.04,WSDL version 423,2013-05-22 08:38:00,
2013-05-22 04:43:00,60.8,58.5,27.85,SE,135,0.0,0.9,92,0.00,,,0.04,WSDL version 423,2013-05-22 08:43:00,
2013-05-22 04:48:00,60.6,58.4,27.85,ENE,78,1.0,1.3,92,0.00,,,0.04,WSDL version 423,2013-05-22 08:48:00,
2013-05-22 04:53:00,60.6,58.4,27.85,SE,135,0.0,1.3,92,0.00,,,0.04,WSDL version 423,2013-05-22 08:53:00,
2013-05-22 04:58:00,60.5,58.2,27.85,East,101,0.6,2.7,92,0.00,,,0.04,WSDL version 423,2013-05-22 08:58:00,
2013-05-22 05:03:00,60.4,58.2,27.85,North,360,0.0,2.7,92,0.00,,,0.04,WSDL version 423,2013-05-22 09:03:00,
2013-05-22 05:08:00,60.4,58.2,27.85,SSW,200,0.0,2.5,93,0.00,,,0.04,WSDL version 423,2013-05-22 09:08:00,
2013-05-22 05:13:00,60.5,58.6,27.85,East,84,0.9,2.5,93,0.00,,,0.04,WSDL version 423,2013-05-22 09:13:00,
2013-05-22 05:18:00,60.8,59.2,27.85,ENE,78,1.3,2.5,94,0.00,,,0.04,WSDL version 423,2013-05-22 09:18:00,
2013-05-22 05:23:00,61.1,59.8,27.85,NNE,25,0.6,2.2,96,0.00,,,0.04,WSDL version 423,2013-05-22 09:23:00,
2013-05-22 05:28:00,60.9,59.4,27.85,NE,42,0.0,1.6,94,0.00,,,0.04,WSDL version 423,2013-05-22 09:28:00,
2013-05-22 05:33:00,60.6,59.0,27.88,SSE,158,0.0,1.6,94,0.00,,,0.04,WSDL version 423,2013-05-22 09:33:00,
2013-05-22 05:38:00,60.6,59.0,27.88,ENE,73,0.0,1.6,94,0.00,,,0.04,WSDL version 423,2013-05-22 09:38:00,
2013-05-22 05:43:00,60.6,59.1,27.88,SSE,158,0.0,0.0,94,0.00,,,0.04,WSDL version 423,2013-05-22 09:43:00,
2013-05-22 05:48:00,60.5,58.9,27.85,SSE,158,0.0,0.0,94,0.00,,,0.04,WSDL version 423,2013-05-22 09:48:00,
2013-05-22 05:53:00,60.3,58.7,27.85,SSE,158,0.0,0.0,94,0.00,,,0.04,WSDL version 423,2013-05-22 09:53:00,
2013-05-22 05:58:00,60.4,58.8,27.85,SSE,158,0.0,0.0,94,0.00,,,0.04,WSDL version 423,2013-05-22 09:58:00,
2013-05-22 06:03:00,60.3,58.7,27.88,ENE,68,0.0,0.0,94,0.00,,,0.04,WSDL version 423,2013-05-22 10:03:00,
2013-05-22 06:08:00,60.3,58.7,27.88,NNE,18,0.0,0.0,94,0.00,,,0.04,WSDL version 423,2013-05-22 10:08:00,
2013-05-22 06:13:00,60.3,58.7,27.88,NNW,338,0.0,0.0,94,0.00,,,0.04,WSDL version 423,2013-05-22 10:13:00,
2013-05-22 06:18:00,60.3,58.7,27.88,North,360,0.0,0.0,94,0.00,,,0.04,WSDL version 423,2013-05-22 10:18:00,
2013-05-22 06:23:00,60.2,58.6,27.88,North,360,0.0,0.0,94,0.00,,,0.04,WSDL version 423,2013-05-22 10:23:00,
2013-05-22 06:28:00,60.0,58.2,27.88,NE,40,0.0,0.0,93,0.00,,,0.04,WSDL version 423,2013-05-22 10:28:00,
2013-05-22 06:33:00,59.9,58.0,27.88,NNE,18,0.0,0.0,93,0.00,,,0.04,WSDL version 423,2013-05-22 10:33:00,
2013-05-22 06:38:00,59.8,57.9,27.88,NW,309,0.0,0.0,93,0.00,,,0.04,WSDL version 423,2013-05-22 10:38:00,
2013-05-22 06:43:00,59.7,57.8,27.88,South,180,0.0,0.0,93,0.00,,,0.04,WSDL version 423,2013-05-22 10:43:00,
2013-05-22 06:48:00,59.7,57.8,27.88,SSE,160,0.0,0.0,94,0.00,,,0.04,WSDL version 423,2013-05-22 10:48:00,
2013-05-22 06:53:00,59.7,58.1,27.88,NNW,335,0.0,2.0,94,0.00,,,0.04,WSDL version 423,2013-05-22 10:53:00,
2013-05-22 06:58:00,59.7,58.1,27.88,NW,315,0.0,2.0,94,0.00,,,0.04,WSDL version 423,2013-05-22 10:58:00,
2013-05-22 07:03:00,59.7,58.1,27.88,NW,315,0.0,0.0,94,0.00,,,0.04,WSDL version 423,2013-05-22 11:03:00,
2013-05-22 07:08:00,59.7,58.1,27.88,East,84,0.0,0.0,94,0.00,,,0.04,WSDL version 423,2013-05-22 11:08:00,
2013-05-22 07:13:00,59.7,58.1,27.88,East,90,0.0,0.0,94,0.00,,,0.04,WSDL version 423,2013-05-22 11:13:00,
2013-05-22 07:18:00,59.9,58.3,27.88,East,93,0.0,0.0,94,0.00,,,0.04,WSDL version 423,2013-05-22 11:18:00,
2013-05-22 07:23:00,60.1,58.5,27.88,ENE,68,0.0,0.0,94,0.00,,,0.04,WSDL version 423,2013-05-22 11:23:00,
2013-05-22 07:28:00,60.4,59.1,27.88,ENE,68,0.0,0.0,96,0.00,,,0.04,WSDL version 423,2013-05-22 11:28:00,
2013-05-22 07:33:00,60.4,58.9,27.88,SW,214,0.0,0.0,94,0.00,,,0.04,WSDL version 423,2013-05-22 11:33:00,
2013-05-22 07:38:00,60.4,58.8,27.88,SSW,203,0.0,0.0,94,0.00,,,0.04,WSDL version 423,2013-05-22 11:38:00,
2013-05-22 07:43:00,60.4,58.9,27.88,SSW,203,0.0,0.0,94,0.00,,,0.04,WSDL version 423,2013-05-22 11:43:00,
2013-05-22 07:48:00,60.5,59.1,27.91,SSW,203,0.0,0.0,96,0.00,,,0.04,WSDL version 423,2013-05-22 11:48:00,
2013-05-22 07:53:00,60.7,59.3,27.91,ENE,68,0.0,0.0,94,0.00,,,0.04,WSDL version 423,2013-05-22 11:53:00,
2013-05-22 07:58:00,61.0,59.8,27.91,East,79,0.0,0.0,96,0.00,,,0.04,WSDL version 423,2013-05-22 11:58:00,
2013-05-22 08:03:00,61.4,60.1,27.91,ESE,105,0.0,0.0,96,0.00,,,0.04,WSDL version 423,2013-05-22 12:03:00,
2013-05-22 08:08:00,61.5,60.2,27.91,SSE,158,0.0,0.0,96,0.00,,,0.04,WSDL version 423,2013-05-22 12:08:00,
2013-05-22 08:13:00,61.6,60.3,27.91,ESE,118,0.0,0.0,96,0.00,,,0.04,WSDL version 423,2013-05-22 12:13:00,
2013-05-22 08:18:00,61.8,60.5,27.88,SSE,158,0.0,0.0,96,0.00,,,0.04,WSDL version 423,2013-05-22 12:18:00,
2013-05-22 08:23:00,61.9,60.6,27.88,East,88,0.0,0.0,96,0.00,,,0.04,WSDL version 423,2013-05-22 12:23:00,
2013-05-22 08:28:00,62.2,60.9,27.88,ENE,68,0.0,0.0,96,0.00,,,0.04,WSDL version 423,2013-05-22 12:28:00,
2013-05-22 08:33:00,62.5,61.2,27.88,East,98,0.0,0.0,96,0.00,,,0.04,WSDL version 423,2013-05-22 12:33:00,
2013-05-22 08:38:00,62.7,61.4,27.88,SSE,158,0.0,0.0,96,0.00,,,0.04,WSDL version 423,2013-05-22 12:38:00,
2013-05-22 08:43:00,63.0,61.9,27.88,SSE,158,0.0,0.0,97,0.00,,,0.04,WSDL version 423,2013-05-22 12:43:00,
2013-05-22 08:48:00,63.2,62.1,27.88,South,169,0.0,1.1,97,0.00,,,0.04,WSDL version 423,2013-05-22 12:48:00,
2013-05-22 08:53:00,63.5,62.5,27.88,ENE,68,0.0,1.1,97,0.00,,,0.04,WSDL version 423,2013-05-22 12:53:00,
2013-05-22 08:58:00,63.8,62.8,27.88,ENE,68,0.0,1.1,97,0.00,,,0.04,WSDL version 423,2013-05-22 12:58:00,
2013-05-22 09:03:00,64.0,63.1,27.91,ENE,68,0.0,0.0,97,0.00,,,0.04,WSDL version 423,2013-05-22 13:03:00,
2013-05-22 09:08:00,64.2,63.3,27.91,NW,315,0.0,0.0,97,0.00,,,0.04,WSDL version 423,2013-05-22 13:08:00,
2013-05-22 09:13:00,64.4,63.1,27.91,SSE,158,0.0,0.0,96,0.00,,,0.04,WSDL version 423,2013-05-22 13:13:00,
2013-05-22 09:18:00,64.7,63.4,27.91,SSE,158,0.0,0.0,96,0.00,,,0.04,WSDL version 423,2013-05-22 13:18:00,
2013-05-22 09:23:00,64.8,63.5,27.91,SSE,158,0.0,0.0,96,0.00,,,0.04,WSDL version 423,2013-05-22 13:23:00,
2013-05-22 09:28:00,65.1,63.8,27.91,East,98,0.0,0.0,96,0.00,,,0.04,WSDL version 423,2013-05-22 13:28:00,
2013-05-22 09:33:00,65.4,64.1,27.91,NNE,17,0.0,1.6,96,0.00,,,0.04,WSDL version 423,2013-05-22 13:33:00,
2013-05-22 09:38:00,65.8,64.5,27.91,ESE,113,0.0,1.6,96,0.00,,,0.04,WSDL version 423,2013-05-22 13:38:00,
2013-05-22 09:43:00,66.2,64.9,27.91,NNW,338,0.0,0.9,96,0.00,,,0.04,WSDL version 423,2013-05-22 13:43:00,
2013-05-22 09:48:00,66.6,65.3,27.88,ENE,75,0.4,1.3,96,0.00,,,0.04,WSDL version 423,2013-05-22 13:48:00,
2013-05-22 09:53:00,67.0,65.6,27.88,SSE,158,0.0,1.3,96,0.00,,,0.04,WSDL version 423,2013-05-22 13:53:00,
2013-05-22 09:58:00,67.4,66.1,27.88,SE,143,0.0,0.0,96,0.00,,,0.04,WSDL version 423,2013-05-22 13:58:00,
2013-05-22 10:03:00,67.8,66.4,27.88,East,90,0.0,0.0,96,0.00,,,0.04,WSDL version 423,2013-05-22 14:03:00,
2013-05-22 10:08:00,68.0,66.2,27.88,East,90,0.7,1.6,93,0.00,,,0.04,WSDL version 423,2013-05-22 14:08:00,
2013-05-22 10:13:00,68.5,66.5,27.88,SE,138,0.8,1.6,93,0.00,,,0.04,WSDL version 423,2013-05-22 14:13:00,
2013-05-22 10:18:00,68.8,66.5,27.88,ESE,113,1.0,2.0,92,0.00,,,0.04,WSDL version 423,2013-05-22 14:18:00,
2013-05-22 10:28:00,69.8,66.6,27.88,South,177,0.5,2.5,89,0.00,,,0.04,WSDL version 423,2013-05-22 14:28:00,
2013-05-22 10:33:00,70.0,66.6,27.88,South,180,0.7,2.7,89,0.00,,,0.04,WSDL version 423,2013-05-22 14:33:00,
2013-05-22 10:38:00,70.1,66.4,27.88,West,275,0.0,2.7,88,0.00,,,0.04,WSDL version 423,2013-05-22 14:38:00,
2013-05-22 10:43:00,70.1,66.2,27.88,South,188,0.0,1.1,88,0.00,,,0.04,WSDL version 423,2013-05-22 14:43:00,
2013-05-22 10:48:00,70.4,66.2,27.88,NW,320,0.0,1.1,87,0.00,,,0.04,WSDL version 423,2013-05-22 14:48:00,
2013-05-22 10:53:00,70.7,66.3,27.88,South,180,0.3,1.6,86,0.00,,,0.04,WSDL version 423,2013-05-22 14:53:00,
2013-05-22 10:58:00,71.1,66.1,27.88,NW,321,0.0,3.4,83,0.00,,,0.04,WSDL version 423,2013-05-22 14:58:00,
2013-05-22 11:03:00,71.5,66.2,27.88,ENE,68,0.0,3.4,83,0.00,,,0.04,WSDL version 423,2013-05-22 15:03:00,
2013-05-22 11:08:00,72.0,66.4,27.88,West,270,0.1,1.6,81,0.00,,,0.04,WSDL version 423,2013-05-22 15:08:00,
2013-05-22 11:13:00,72.8,66.7,27.88,SE,135,0.0,1.6,81,0.00,,,0.04,WSDL version 423,2013-05-22 15:13:00,
2013-05-22 11:18:00,73.6,67.1,27.88,South,183,0.8,3.4,80,0.00,,,0.04,WSDL version 423,2013-05-22 15:18:00,
2013-05-22 11:23:00,74.5,67.3,27.88,South,173,1.0,3.6,77,0.00,,,0.04,WSDL version 423,2013-05-22 15:23:00,
2013-05-22 11:28:00,75.4,66.4,27.88,South,174,1.9,3.6,73,0.00,,,0.04,WSDL version 423,2013-05-22 15:28:00,
2013-05-22 11:33:00,76.7,66.3,27.88,NNE,25,0.6,3.1,69,0.00,,,0.04,WSDL version 423,2013-05-22 15:33:00,
2013-05-22 11:38:00,78.1,66.1,27.88,SSW,203,0.7,3.1,65,0.00,,,0.04,WSDL version 423,2013-05-22 15:38:00,
2013-05-22 11:43:00,79.5,66.7,27.88,SW,236,0.6,2.5,64,0.00,,,0.04,WSDL version 423,2013-05-22 15:43:00,
2013-05-22 11:48:00,80.5,65.7,27.88,NE,50,1.4,2.5,60,0.00,,,0.04,WSDL version 423,2013-05-22 15:48:00,
2013-05-22 11:53:00,80.6,64.6,27.88,SE,141,2.1,3.1,57,0.00,,,0.04,WSDL version 423,2013-05-22 15:53:00,
2013-05-22 11:58:00,81.2,64.7,27.88,WNW,295,1.9,5.4,56,0.00,,,0.04,WSDL version 423,2013-05-22 15:58:00,
2013-05-22 12:03:00,82.0,62.5,27.88,SE,135,1.7,5.4,51,0.00,,,0.04,WSDL version 423,2013-05-22 16:03:00,
2013-05-22 12:08:00,82.3,60.8,27.88,ENE,65,1.6,6.0,50,0.00,,,0.04,WSDL version 423,2013-05-22 16:08:00,
2013-05-22 12:13:00,82.6,61.4,27.88,West,259,2.4,6.0,47,0.00,,,0.04,WSDL version 423,2013-05-22 16:13:00,
2013-05-22 12:18:00,82.8,60.4,27.88,SE,145,1.6,3.4,47,0.00,,,0.04,WSDL version 423,2013-05-22 16:18:00,
2013-05-22 12:23:00,82.8,59.9,27.88,NE,56,2.6,5.4,44,0.00,,,0.04,WSDL version 423,2013-05-22 16:23:00,
2013-05-22 12:28:00,81.7,58.3,27.88,SW,217,2.8,9.6,46,0.00,,,0.04,WSDL version 423,2013-05-22 16:28:00,
2013-05-22 12:33:00,81.4,58.7,27.88,NNE,28,2.7,9.6,45,0.00,,,0.04,WSDL version 423,2013-05-22 16:33:00,
2013-05-22 12:38:00,79.3,57.1,27.88,SSE,161,1.7,4.9,48,0.00,,,0.04,WSDL version 423,2013-05-22 16:38:00,
2013-05-22 12:43:00,78.8,58.1,27.88,North,355,1.0,4.0,50,0.00,,,0.04,WSDL version 423,2013-05-22 16:43:00,
2013-05-22 12:48:00,79.3,59.0,27.88,ENE,59,2.7,5.8,50,0.00,,,0.04,WSDL version 423,2013-05-22 16:48:00,
2013-05-22 12:53:00,79.3,58.3,27.88,SE,125,2.3,5.8,49,0.00,,,0.04,WSDL version 423,2013-05-22 16:53:00,
2013-05-22 12:58:00,79.5,57.9,27.88,SW,236,3.6,6.0,47,0.00,,,0.04,WSDL version 423,2013-05-22 16:58:00,
2013-05-22 13:03:00,79.4,57.6,27.88,North,352,2.7,6.0,46,0.00,,,0.04,WSDL version 423,2013-05-22 17:03:00,
2013-05-22 13:08:00,79.7,57.3,27.88,SSE,163,0.7,4.0,47,0.00,,,0.04,WSDL version 423,2013-05-22 17:08:00,
2013-05-22 13:13:00,80.2,58.5,27.88,SW,235,1.3,2.9,47,0.00,,,0.04,WSDL version 423,2013-05-22 17:13:00,
2013-05-22 13:18:00,80.4,58.0,27.85,North,354,1.8,4.7,46,0.00,,,0.04,WSDL version 423,2013-05-22 17:18:00,
2013-05-22 13:23:00,80.8,58.3,27.85,SE,135,2.4,5.4,46,0.00,,,0.04,WSDL version 423,2013-05-22 17:23:00,
2013-05-22 13:28:00,80.5,57.1,27.85,NNW,328,2.5,5.4,45,0.00,,,0.04,WSDL version 423,2013-05-22 17:28:00,
2013-05-22 13:33:00,80.2,56.9,27.85,SW,220,2.6,5.4,45,0.00,,,0.04,WSDL version 423,2013-05-22 17:33:00,
2013-05-22 13:38:00,80.0,56.5,27.85,WNW,301,2.0,3.8,44,0.00,,,0.04,WSDL version 423,2013-05-22 17:38:00,
2013-05-22 13:43:00,79.9,56.2,27.85,North,352,2.0,3.8,45,0.00,,,0.04,WSDL version 423,2013-05-22 17:43:00,
2013-05-22 13:48:00,79.6,55.9,27.85,East,82,2.3,6.0,45,0.00,,,0.04,WSDL version 423,2013-05-22 17:48:00,
2013-05-22 13:53:00,80.2,56.3,27.85,North,360,1.8,6.0,44,0.00,,,0.04,WSDL version 423,2013-05-22 17:53:00,
2013-05-22 13:58:00,80.7,56.3,27.85,ENE,63,1.7,3.1,43,0.00,,,0.04,WSDL version 423,2013-05-22 17:58:00,
2013-05-22 14:03:00,81.3,56.0,27.85,South,169,2.5,4.0,42,0.00,,,0.04,WSDL version 423,2013-05-22 18:03:00,
2013-05-22 14:08:00,81.4,56.0,27.85,East,83,3.1,4.9,42,0.00,,,0.04,WSDL version 423,2013-05-22 18:08:00,
2013-05-22 14:13:00,81.4,55.5,27.85,North,360,2.7,5.4,41,0.00,,,0.04,WSDL version 423,2013-05-22 18:13:00,
2013-05-22 14:18:00,81.3,54.9,27.85,WNW,290,3.0,6.9,40,0.00,,,0.04,WSDL version 423,2013-05-22 18:18:00,
2013-05-22 14:23:00,81.1,54.8,27.85,SW,221,2.3,7.2,41,0.00,,,0.04,WSDL version 423,2013-05-22 18:23:00,
2013-05-22 14:28:00,80.6,54.9,27.85,NW,323,1.4,7.2,42,0.00,,,0.04,WSDL version 423,2013-05-22 18:28:00,
2013-05-22 14:33:00,80.3,55.3,27.85,WNW,295,2.8,4.0,43,0.00,,,0.04,WSDL version 423,2013-05-22 18:33:00,
2013-05-22 14:38:00,80.1,55.6,27.85,East,93,2.8,6.0,43,0.00,,,0.04,WSDL version 423,2013-05-22 18:38:00,
2013-05-22 14:43:00,79.8,55.3,27.85,SSE,163,2.6,6.0,43,0.00,,,0.04,WSDL version 423,2013-05-22 18:43:00,
2013-05-22 14:48:00,79.6,55.0,27.82,North,357,1.9,5.6,43,0.00,,,0.04,WSDL version 423,2013-05-22 18:48:00,
2013-05-22 14:53:00,79.5,54.9,27.82,SSW,203,2.5,7.2,43,0.00,,,0.04,WSDL version 423,2013-05-22 18:53:00,
2013-05-22 14:58:00,79.7,55.4,27.82,West,266,2.0,7.2,44,0.00,,,0.04,WSDL version 423,2013-05-22 18:58:00,
2013-05-22 15:03:00,80.1,56.4,27.82,West,270,1.7,3.6,45,0.00,,,0.04,WSDL version 423,2013-05-22 19:03:00,
2013-05-22 15:08:00,80.4,56.1,27.82,East,98,3.3,5.8,43,0.00,,,0.04,WSDL version 423,2013-05-22 19:08:00,
2013-05-22 15:13:00,79.9,55.5,27.82,SSW,203,2.0,5.8,43,0.00,,,0.04,WSDL version 423,2013-05-22 19:13:00,
2013-05-22 15:18:00,80.2,55.7,27.82,West,281,2.6,5.4,43,0.00,,,0.04,WSDL version 423,2013-05-22 19:18:00,
2013-05-22 15:23:00,80.7,56.0,27.82,South,180,1.7,5.4,43,0.00,,,0.04,WSDL version 423,2013-05-22 19:23:00,
2013-05-22 15:28:00,81.1,56.0,27.82,WNW,298,1.8,3.4,42,0.00,,,0.04,WSDL version 423,2013-05-22 19:28:00,
2013-05-22 15:33:00,81.0,55.2,27.82,East,93,2.0,4.0,42,0.00,,,0.04,WSDL version 423,2013-05-22 19:33:00,
2013-05-22 15:38:00,81.4,55.6,27.82,South,180,2.4,4.0,41,0.00,,,0.04,WSDL version 423,2013-05-22 19:38:00,
2013-05-22 15:43:00,81.2,55.3,27.82,West,281,1.2,6.0,41,0.00,,,0.04,WSDL version 423,2013-05-22 19:43:00,
2013-05-22 15:48:00,80.4,55.1,27.79,West,270,2.3,6.0,42,0.00,,,0.04,WSDL version 423,2013-05-22 19:48:00,
2013-05-22 15:53:00,80.8,55.3,27.79,West,270,2.4,6.9,41,0.00,,,0.04,WSDL version 423,2013-05-22 19:53:00,
2013-05-22 15:58:00,81.4,55.9,27.79,WNW,293,1.4,6.9,42,0.00,,,0.04,WSDL version 423,2013-05-22 19:58:00,
2013-05-22 16:03:00,81.2,56.6,27.79,West,276,2.7,4.0,43,0.00,,,0.04,WSDL version 423,2013-05-22 20:03:00,
2013-05-22 16:08:00,81.3,56.0,27.79,East,82,2.0,4.0,42,0.00,,,0.04,WSDL version 423,2013-05-22 20:08:00,
2013-05-22 16:13:00,81.0,55.4,27.79,West,270,3.0,5.4,41,0.00,,,0.04,WSDL version 423,2013-05-22 20:13:00,
2013-05-22 16:18:00,80.4,55.0,27.79,East,85,2.2,5.4,42,0.00,,,0.04,WSDL version 423,2013-05-22 20:18:00,
2013-05-22 16:23:00,79.8,55.1,27.79,WSW,253,2.0,5.8,43,0.00,,,0.04,WSDL version 423,2013-05-22 20:23:00,
2013-05-22 16:28:00,79.1,54.7,27.79,SW,235,0.0,5.8,43,0.00,,,0.04,WSDL version 423,2013-05-22 20:28:00,
2013-05-22 16:33:00,78.9,55.0,27.79,SSE,166,1.7,4.0,43,0.00,,,0.04,WSDL version 423,2013-05-22 20:33:00,
2013-05-22 16:38:00,79.7,55.0,27.79,NW,310,2.4,4.0,41,0.00,,,0.04,WSDL version 423,2013-05-22 20:38:00,
2013-05-22 16:43:00,80.0,54.8,27.79,WNW,295,1.7,4.0,42,0.00,,,0.04,WSDL version 423,2013-05-22 20:43:00,
2013-05-22 16:48:00,80.2,54.3,27.76,NW,315,2.3,4.0,40,0.00,,,0.04,WSDL version 423,2013-05-22 20:48:00,
2013-05-22 16:53:00,80.2,54.0,27.76,West,267,1.8,4.0,40,0.00,,,0.04,WSDL version 423,2013-05-22 20:53:00,
2013-05-22 16:58:00,80.0,54.1,27.76,South,180,2.0,4.0,41,0.00,,,0.04,WSDL version 423,2013-05-22 20:58:00,
2013-05-22 17:03:00,79.9,53.1,27.76,SSW,210,2.9,6.5,40,0.00,,,0.04,WSDL version 423,2013-05-22 21:03:00,
2013-05-22 17:08:00,79.9,52.6,27.76,WNW,287,2.7,6.5,37,0.00,,,0.04,WSDL version 423,2013-05-22 21:08:00,
2013-05-22 17:13:00,79.7,51.9,27.76,South,174,1.9,4.9,39,0.00,,,0.04,WSDL version 423,2013-05-22 21:13:00,
2013-05-22 17:18:00,79.7,51.2,27.76,SSE,158,2.9,7.4,37,0.00,,,0.04,WSDL version 423,2013-05-22 21:18:00,
2013-05-22 17:23:00,79.7,51.1,27.76,SSE,165,2.4,7.4,37,0.00,,,0.04,WSDL version 423,2013-05-22 21:23:00,
2013-05-22 17:28:00,79.5,50.9,27.76,East,83,1.1,5.6,37,0.00,,,0.04,WSDL version 423,2013-05-22 21:28:00,
2013-05-22 17:33:00,79.3,50.8,27.76,SW,222,2.8,5.6,37,0.00,,,0.04,WSDL version 423,2013-05-22 21:33:00,
2013-05-22 17:38:00,79.0,50.4,27.76,ENE,76,2.6,6.5,37,0.00,,,0.04,WSDL version 423,2013-05-22 21:38:00,
2013-05-22 17:43:00,78.6,50.7,27.76,South,174,0.5,6.5,38,0.00,,,0.04,WSDL version 423,2013-05-22 21:43:00,
2013-05-22 17:48:00,78.1,50.8,27.76,WSW,238,1.1,2.7,39,0.00,,,0.04,WSDL version 423,2013-05-22 21:48:00,
2013-05-22 17:53:00,77.6,50.8,27.76,SW,225,2.0,4.9,39,0.00,,,0.04,WSDL version 423,2013-05-22 21:53:00,
2013-05-22 17:58:00,77.2,50.8,27.76,WSW,255,2.4,4.9,40,0.00,,,0.04,WSDL version 423,2013-05-22 21:58:00,
2013-05-22 18:03:00,76.8,51.1,27.76,ESE,103,1.9,4.3,41,0.00,,,0.04,WSDL version 423,2013-05-22 22:03:00,
2013-05-22 18:08:00,76.4,51.3,27.76,WNW,288,2.5,6.0,42,0.00,,,0.04,WSDL version 423,2013-05-22 22:08:00,
2013-05-22 18:13:00,75.8,50.6,27.76,South,170,4.6,8.7,41,0.00,,,0.04,WSDL version 423,2013-05-22 22:13:00,
2013-05-22 18:18:00,74.5,50.8,27.82,SE,135,3.2,8.7,47,0.09,,,0.13,WSDL version 423,2013-05-22 22:18:00,
2013-05-22 18:23:00,69.8,52.6,27.82,ESE,121,2.9,10.1,58,0.17,,,0.21,WSDL version 423,2013-05-22 22:23:00,
2013-05-22 18:28:00,67.4,55.7,27.82,East,101,1.9,10.1,67,0.21,,,0.25,WSDL version 423,2013-05-22 22:28:00,
2013-05-22 18:33:00,66.2,56.3,27.79,East,85,1.3,3.8,71,0.21,,,0.25,WSDL version 423,2013-05-22 22:33:00,
2013-05-22 18:38:00,65.7,56.3,27.79,NE,43,1.4,3.8,72,0.21,,,0.25,WSDL version 423,2013-05-22 22:38:00,
2013-05-22 18:43:00,65.5,56.5,27.79,SSE,165,0.9,2.7,73,0.21,,,0.25,WSDL version 423,2013-05-22 22:43:00,
2013-05-22 18:48:00,65.5,56.9,27.79,SSE,158,0.0,1.6,75,0.21,,,0.25,WSDL version 423,2013-05-22 22:48:00,
2013-05-22 18:53:00,65.8,57.9,27.79,ENE,65,1.1,2.0,77,0.21,,,0.25,WSDL version 423,2013-05-22 22:53:00,
2013-05-22 18:58:00,66.0,59.2,27.79,West,280,0.1,2.0,79,0.21,,,0.25,WSDL version 423,2013-05-22 22:58:00,
2013-05-22 19:03:00,66.2,59.7,27.79,NNE,20,0.0,2.0,80,0.21,,,0.25,WSDL version 423,2013-05-22 23:03:00,
2013-05-22 19:08:00,66.4,60.3,27.79,ESE,104,0.0,1.3,81,0.21,,,0.25,WSDL version 423,2013-05-22 23:08:00,
2013-05-22 19:13:00,66.7,61.0,27.79,NNW,348,0.0,1.1,82,0.21,,,0.25,WSDL version 423,2013-05-22 23:13:00,
2013-05-22 19:18:00,66.7,61.2,27.79,ENE,68,0.1,1.6,82,0.12,,,0.25,WSDL version 423,2013-05-22 23:18:00,
2013-05-22 19:23:00,66.7,61.5,27.79,ENE,68,0.1,1.6,84,0.04,,,0.25,WSDL version 423,2013-05-22 23:23:00,
2013-05-22 19:28:00,66.7,61.9,27.79,ENE,68,0.9,1.6,84,0.00,,,0.25,WSDL version 423,2013-05-22 23:28:00,
2013-05-22 19:33:00,66.7,61.8,27.79,ENE,68,0.0,1.6,84,0.00,,,0.25,WSDL version 423,2013-05-22 23:33:00,
2013-05-22 19:38:00,66.7,62.1,27.79,ENE,68,0.0,1.6,86,0.00,,,0.25,WSDL version 423,2013-05-22 23:38:00,
2013-05-22 19:43:00,66.7,62.3,27.79,South,180,0.0,0.0,86,0.00,,,0.25,WSDL version 423,2013-05-22 23:43:00,
2013-05-22 19:48:00,66.7,62.2,27.79,East,80,0.0,1.1,86,0.00,,,0.25,WSDL version 423,2013-05-22 23:48:00,
2013-05-22 19:53:00,66.7,62.3,27.79,ENE,68,0.0,1.1,86,0.00,,,0.25,WSDL version 423,2013-05-22 23:53:00,
2013-05-22 19:58:00,66.7,62.6,27.79,ENE,68,0.0,1.3,87,0.00,,,0.25,WSDL version 423,2013-05-22 23:58:00,
2013-05-22 20:03:00,66.5,62.6,27.79,ENE,68,1.1,1.3,88,0.00,,,0.25,WSDL version 423,2013-05-23 00:03:00,
2013-05-22 20:08:00,66.2,62.5,27.79,North,8,0.0,1.3,88,0.00,,,0.25,WSDL version 423,2013-05-23 00:08:00,
2013-05-22 20:13:00,66.0,62.3,27.79,ESE,107,0.0,0.0,88,0.00,,,0.25,WSDL version 423,2013-05-23 00:13:00,
2013-05-22 20:18:00,66.0,62.4,27.79,ENE,68,0.6,1.6,89,0.00,,,0.25,WSDL version 423,2013-05-23 00:18:00,
2013-05-22 20:23:00,65.8,62.1,27.79,ENE,68,0.0,1.6,88,0.00,,,0.25,WSDL version 423,2013-05-23 00:23:00,
2013-05-22 20:28:00,65.7,62.3,27.79,ENE,68,0.0,1.6,89,0.00,,,0.25,WSDL version 423,2013-05-23 00:28:00,
2013-05-22 20:33:00,65.5,62.1,27.79,SSE,158,0.0,1.3,89,0.00,,,0.25,WSDL version 423,2013-05-23 00:33:00,
2013-05-22 20:38:00,65.4,62.0,27.79,SSE,158,0.0,0.0,89,0.00,,,0.25,WSDL version 423,2013-05-23 00:38:00,
2013-05-22 20:43:00,65.3,61.9,27.79,East,90,0.0,0.0,89,0.00,,,0.25,WSDL version 423,2013-05-23 00:43:00,
2013-05-22 20:48:00,65.3,62.0,27.82,East,90,0.0,0.0,90,0.00,,,0.25,WSDL version 423,2013-05-23 00:48:00,
2013-05-22 20:53:00,65.1,62.1,27.82,East,79,0.0,0.0,90,0.00,,,0.25,WSDL version 423,2013-05-23 00:53:00,
2013-05-22 20:58:00,65.2,62.2,27.82,ENE,68,0.0,0.0,90,0.00,,,0.25,WSDL version 423,2013-05-23 00:58:00,
2013-05-22 21:03:00,65.3,62.3,27.82,SSE,158,0.0,0.0,90,0.00,,,0.25,WSDL version 423,2013-05-23 01:03:00,
2013-05-22 21:08:00,65.2,62.2,27.82,SSE,158,0.0,0.0,90,0.00,,,0.25,WSDL version 423,2013-05-23 01:08:00,
2013-05-22 21:13:00,65.1,62.1,27.82,North,360,0.0,0.0,90,0.00,,,0.25,WSDL version 423,2013-05-23 01:13:00,
2013-05-22 21:18:00,65.0,62.0,27.82,WSW,248,0.0,0.0,90,0.00,,,0.25,WSDL version 423,2013-05-23 01:18:00,
2013-05-22 21:23:00,64.9,61.9,27.82,WSW,248,0.0,0.0,90,0.00,,,0.25,WSDL version 423,2013-05-23 01:23:00,
2013-05-22 21:28:00,64.8,61.8,27.82,SW,225,0.0,0.0,90,0.00,,,0.25,WSDL version 423,2013-05-23 01:28:00,
2013-05-22 21:33:00,64.8,61.8,27.82,SW,225,0.0,0.0,90,0.00,,,0.25,WSDL version 423,2013-05-23 01:33:00,
2013-05-22 21:38:00,64.8,61.9,27.82,SW,225,0.0,0.0,91,0.00,,,0.25,WSDL version 423,2013-05-23 01:38:00,
2013-05-22 21:43:00,64.8,62.0,27.82,South,177,0.0,0.0,90,0.00,,,0.25,WSDL version 423,2013-05-23 01:43:00,
2013-05-22 21:48:00,64.8,62.0,27.82,SSE,158,0.0,0.0,91,0.00,,,0.25,WSDL version 423,2013-05-23 01:48:00,
2013-05-22 21:53:00,64.8,62.1,27.82,SSE,158,0.0,0.0,91,0.00,,,0.25,WSDL version 423,2013-05-23 01:53:00,
2013-05-22 21:58:00,64.8,62.1,27.82,SSE,158,0.0,0.0,91,0.00,,,0.25,WSDL version 423,2013-05-23 01:58:00,
2013-05-22 22:03:00,64.7,62.0,27.82,SSE,158,0.0,0.0,91,0.00,,,0.25,WSDL version 423,2013-05-23 02:03:00,
2013-05-22 22:08:00,64.6,61.9,27.82,SSE,158,0.0,0.0,91,0.00,,,0.25,WSDL version 423,2013-05-23 02:08:00,
2013-05-22 22:13:00,64.5,61.9,27.82,SSE,158,0.0,0.0,91,0.00,,,0.25,WSDL version 423,2013-05-23 02:13:00,
2013-05-22 22:18:00,64.4,61.8,27.82,SSE,158,0.0,0.0,91,0.00,,,0.25,WSDL version 423,2013-05-23 02:18:00,
2013-05-22 22:23:00,64.4,61.8,27.82,SSE,158,0.0,0.0,91,0.00,,,0.25,WSDL version 423,2013-05-23 02:23:00,
2013-05-22 22:28:00,64.3,61.7,27.82,SE,135,0.0,0.0,91,0.00,,,0.25,WSDL version 423,2013-05-23 02:28:00,
2013-05-22 22:33:00,64.3,61.8,27.82,SE,135,0.0,0.0,92,0.00,,,0.25,WSDL version 423,2013-05-23 02:33:00,
2013-05-22 22:38:00,64.2,61.9,27.82,SE,135,0.0,0.0,92,0.00,,,0.25,WSDL version 423,2013-05-23 02:38:00,
2013-05-22 22:43:00,64.2,61.9,27.82,SE,140,0.0,0.0,92,0.00,,,0.25,WSDL version 423,2013-05-23 02:43:00,
2013-05-22 22:48:00,64.2,61.9,27.82,SSE,158,0.0,0.0,92,0.00,,,0.25,WSDL version 423,2013-05-23 02:48:00,
2013-05-22 22:53:00,64.2,61.9,27.82,SE,143,0.0,0.0,92,0.00,,,0.25,WSDL version 423,2013-05-23 02:53:00,
2013-05-22 22:58:00,64.1,61.8,27.82,SSE,158,0.0,0.0,92,0.00,,,0.25,WSDL version 423,2013-05-23 02:58:00,
2013-05-22 23:03:00,64.0,61.7,27.85,SSE,158,0.0,0.0,92,0.00,,,0.25,WSDL version 423,2013-05-23 03:03:00,
2013-05-22 23:08:00,64.0,61.7,27.85,SSE,158,0.0,0.0,92,0.00,,,0.25,WSDL version 423,2013-05-23 03:08:00,
2013-05-22 23:13:00,64.0,61.7,27.85,SSE,158,0.0,0.0,92,0.00,,,0.25,WSDL version 423,2013-05-23 03:13:00,
2013-05-22 23:18:00,64.0,61.7,27.85,SSE,158,0.0,0.0,92,0.00,,,0.25,WSDL version 423,2013-05-23 03:18:00,
2013-05-22 23:23:00,63.9,61.6,27.85,SSE,158,0.0,0.0,92,0.00,,,0.25,WSDL version 423,2013-05-23 03:23:00,
2013-05-22 23:28:00,63.9,61.6,27.85,SSE,158,0.0,0.0,92,0.00,,,0.25,WSDL version 423,2013-05-23 03:28:00,
2013-05-22 23:33:00,63.7,61.4,27.85,SSW,198,0.0,0.0,92,0.00,,,0.25,WSDL version 423,2013-05-23 03:33:00,
2013-05-22 23:38:00,63.6,61.3,27.85,NNW,338,0.0,0.0,92,0.00,,,0.25,WSDL version 423,2013-05-23 03:38:00,
2013-05-22 23:43:00,63.5,61.5,27.85,NNW,338,0.0,0.0,93,0.00,,,0.25,WSDL version 423,2013-05-23 03:43:00,
2013-05-22 23:48:00,63.4,61.5,27.85,NNW,338,0.0,0.0,93,0.00,,,0.25,WSDL version 423,2013-05-23 03:48:00,
2013-05-22 23:53:00,63.3,61.4,27.85,NNW,338,0.0,0.0,93,0.00,,,0.25,WSDL version 423,2013-05-23 03:53:00,
2013-05-22 23:58:00,63.3,61.3,27.85,North,349,0.0,0.0,93,0.00,,,0.25,WSDL version 423,2013-05-23 03:58:00,